[[{"header":{"parameterUnit":"m.s-1","parameterCategory":2,"la1":30.2991,"la2":30.254,"lo1":-89.0895,"lo2":-89.0444,"dy":0.0017,"dx":0.0017,"nx":28,"ny":28,"refTime":"2024-04-25T09:00:00:Z","depth":"0","parameterNumber":2,"parameterNumberName":"U-component_of_CURRENTS"},"data":[0,0,0,0,0,0,0,0,0,0,0,0,0,0,0,0,0,0,0,0,0,0,0,0,0,0,0,0,0,0,0,0,0,0,0,0,0,0,0,0,0,0,0,0,0,0,0,0,0,0,0,0,0,0,0,0,0,0,0.3815,0.3816,0,0.3846,0.3846,0.3846,0.3831,0.383,0.3829,0.3829,0.3876,0.3878,0.3879,0,0,0,0,0,0,0,0,0,0,0,0,0,0.376,0.376,0.3815,0.3816,0.3816,0.3846,0.3846,0.3846,0.3831,0.383,0.3829,0.3829,0.3875,0.3877,0.388,0,0,0,0,0,0,0,0,0,0,0,0,0,0.3784,0.3761,0.3815,0.3814,0.3814,0.3846,0.3846,0.3846,0.3831,0.383,0.3829,0.3828,0.3875,0.3877,0.388,0.3914,0,0,0.3888,0.3889,0,0,0,0,0,0,0,0,0.3783,0.3786,0.3814,0.3814,0.3815,0.3836,0.3844,0.3871,0.3831,0.3822,0.3829,0.3828,0.3866,0.3869,0.3874,0.3917,0.3919,0.3888,0.389,0.3891,0.3892,0,0,0,0,0,0,0,0.3781,0.3784,0.3825,0.3814,0.3815,0.3818,0.382,0.3849,0.3847,0.3823,0.3822,0.383,0.3866,0.3871,0.3875,0.3919,0.3888,0.3891,0.3892,0.3893,0.4011,0.4013,0,0,0,0,0,0,0.3782,0.3783,0.3824,0.3826,0.3799,0.3819,0.3822,0.3828,0.3847,0.3849,0.383,0.3829,0.3867,0.3872,0.3876,0.3958,0.3891,0.3894,0.3895,0.401,0.4012,0.4013,0,0,0,0,0,0,0.3781,0.3786,0.3823,0.3807,0.3812,0.3821,0.3828,0.3829,0.3838,0.3853,0.3855,0.3839,0.3866,0.3873,0.391,0.3958,0.3895,0.3897,0.4008,0.401,0.4012,0.4095,0,0,0,0,0,0,0.3779,0.3785,0.3792,0.3807,0.3813,0.3856,0.383,0.383,0.3845,0.3843,0.3861,0.3864,0.3866,0.3906,0.3912,0.396,0.39,0.4006,0.4009,0.4012,0.4091,0.41,0.4108,0,0,0,0,0,0.3777,0.3792,0.3793,0.3798,0.3822,0.3858,0.3861,0.3863,0.3846,0.3864,0.3869,0.3864,0.3928,0.3909,0.3917,0.3967,0.4005,0.4008,0.4011,0.4087,0.4098,0.4108,0,0,0,0,0,0,0.377,0.3792,0.3793,0.3813,0.3841,0.3856,0.3873,0.387,0.3887,0.3887,0.3885,0.389,0.3943,0.3939,0.3918,0.4006,0.3966,0.3971,0.4021,0.4031,0.404,0.4103,0.3902,0,0,0,0,0,0.3774,0.3795,0.3816,0.3837,0.385,0.3862,0.3875,0.3882,0.3898,0.3904,0.3913,0.3929,0.3964,0.3982,0.4007,0.4056,0.412,0.4091,0.41,0.4108,0.4163,0.4283,0.431,0.4024,0.4024,0.4024,0,0,0.3777,0.3795,0.3805,0.3839,0.3856,0.3894,0.3868,0.3901,0.3941,0.391,0.3958,0.3964,0.3983,0.404,0.4063,0.4042,0.4222,0.4112,0.4119,0.4171,0.429,0.4319,0.4344,0.4027,0.4026,0.4026,0,0,0.3802,0.3813,0.3838,0.3866,0.3904,0.3923,0.3935,0.3958,0.3977,0.4018,0.4015,0.4065,0.4081,0.4134,0.4155,0.4233,0.4264,0.4211,0.4314,0.4429,0.4455,0.4478,0.46,0.4634,0.4216,0.4216,0.4216,0,0.3809,0.3838,0.3854,0.389,0.392,0.3939,0.398,0.4015,0.4048,0.4082,0.4043,0.4129,0.4146,0.4255,0.4285,0.4263,0.4323,0.427,0.4445,0.447,0.4493,0.4612,0.4648,0.422,0.422,0.4219,0.4219,0,0.3849,0.3879,0.3901,0.3956,0.3995,0.4036,0.4086,0.4129,0.414,0.4171,0.4259,0.4284,0.4344,0.4348,0.4346,0.4509,0.45,0.4444,0.4426,0.4527,0.4645,0.4682,0.4226,0.4225,0.4224,0.4222,0,0,0.3851,0.3916,0.3924,0.3961,0.4032,0.4071,0.4156,0.424,0.4317,0.434,0.4443,0.4508,0.4521,0.4552,0.4556,0.4662,0.4876,0.463,0.4633,0.4768,0.5148,0.5058,0.5089,0.4839,0.4845,0.4851,0.5168,0,0.388,0.3949,0.3981,0.4066,0.4108,0.4164,0.4247,0.4332,0.4398,0.4505,0.4561,0.4657,0.4597,0.4647,0.4743,0.486,0.4975,0.4798,0.5018,0.5026,0.4947,0.5129,0.4847,0.5098,0.5203,0.5209,0.5214,0,0.3903,0.3953,0.4026,0.4128,0.4154,0.4215,0.4363,0.4443,0.4599,0.4654,0.4754,0.4801,0.4989,0.49,0.5169,0.5052,0.5127,0.5193,0.5205,0.513,0.5005,0.5012,0.516,0.497,0.527,0.5265,0.5261,0,0.3892,0.3985,0.4045,0.4077,0.4197,0.4255,0.4332,0.4483,0.459,0.4776,0.4886,0.5039,0.5173,0.5286,0.5405,0.5319,0.5687,0.5575,0.5566,0.556,0.5375,0.5341,0.5384,0.5779,0.5778,0.5777,0.5776,0,0.3906,0.3959,0.4044,0.4081,0.4186,0.4265,0.4411,0.4509,0.4696,0.4867,0.4968,0.5143,0.5282,0.5471,0.5522,0.5685,0.5784,0.5668,0.5663,0.5391,0.5356,0.5221,0.5139,0.5789,0.5786,0.5784,0.5782,0,0.3889,0.3937,0.4017,0.4136,0.4179,0.4257,0.4445,0.4578,0.474,0.498,0.506,0.5312,0.5563,0.5671,0.5913,0.5867,0.5832,0.601,0.5686,0.5637,0.5399,0.5331,0.5319,0.5173,0.6091,0.6091,0.6092,0,0.3886,0.392,0.404,0.4107,0.4163,0.4292,0.441,0.4579,0.4738,0.5083,0.5221,0.552,0.5699,0.5999,0.5989,0.6088,0.5874,0.5873,0.5653,0.5427,0.535,0.5154,0.5016,0.5455,0.545,0.5445,0.5442,0,0.3907,0.3943,0.4028,0.4138,0.4253,0.4373,0.4548,0.4658,0.4905,0.508,0.5354,0.5517,0.58,0.5771,0.5879,0.5885,0.5553,0.5789,0.5641,0.4966,0.4675,0.4512,0.5219,0.5404,0.5408,0.5411,0.5413,0.5414,0.394,0.3998,0.4104,0.4206,0.4323,0.4436,0.4477,0.4663,0.4832,0.5016,0.5294,0.5394,0.5474,0.5574,0.5562,0.5308,0.5351,0.5095,0.5079,0.4938,0.4641,0.5283,0.5383,0.5387,0.539,0.5393,0.5395,0,0.3994,0.4071,0.4172,0.428,0.4357,0.4418,0.4563,0.455,0.4635,0.4833,0.4965,0.4959,0.4909,0.4924,0.4781,0.4598,0.4383,0.4456,0.409,0.4026,0.4677,0.4483,0.4283,0.4283,0.4284,0.4284,0.4284,0.4284,0.4046,0.415,0.4189,0.4287,0.4336,0.4324,0.4341,0.4305,0.4356,0.4289,0.4238,0.432,0.4417,0.4343,0.4114,0.4018,0.3714,0.3541,0.3601,0.4,0.4055,0.4107,0.3903,0.3585,0.3585,0.2721,0.2715,0.271]},{"header":{"parameterUnit":"m.s-1","parameterCategory":2,"la1":30.2991,"la2":30.254,"lo1":-89.0895,"lo2":-89.0444,"dy":0.0017,"dx":0.0017,"nx":28,"ny":28,"refTime":"2024-04-25T09:00:00:Z","depth":"0","parameterNumber":3,"parameterNumberName":"V-component_of_CURRENTS"},"data":[0,0,0,0,0,0,0,0,0,0,0,0,0,0,0,0,0,0,0,0,0,0,0,0,0,0,0,0,0,0,0,0,0,0,0,0,0,0,0,0,0,0,0,0,0,0,0,0,0,0,0,0,0,0,0,0,0,0,0.0186,0.0186,0,0.0129,0.0128,0.0128,0.0084,0.0083,0.0083,0.0083,0.0013,0.0011,0.001,0,0,0,0,0,0,0,0,0,0,0,0,0,0.0223,0.0222,0.0186,0.0186,0.0185,0.0129,0.0128,0.0127,0.0084,0.0083,0.0083,0.0083,0.0013,0.0012,0.001,0,0,0,0,0,0,0,0,0,0,0,0,0,0.0188,0.0222,0.0186,0.0158,0.0155,0.013,0.0128,0.0127,0.0084,0.0083,0.0083,0.0083,0.0014,0.0012,0.0009,0.0,0,0,0.0002,0.0001,0,0,0,0,0,0,0,0,0.019,0.0187,0.0163,0.016,0.0157,0.0115,0.0115,0.0085,0.0084,0.0109,0.0083,0.0083,0.0048,0.0042,0.0029,-0.0003,-0.0006,0.0001,-0.0,-0.0001,-0.0002,0,0,0,0,0,0,0,0.0193,0.0189,0.0162,0.0163,0.0159,0.0137,0.0132,0.0109,0.0079,0.0107,0.0104,0.0101,0.0045,0.0032,0.0027,-0.0007,0.0001,-0.0001,-0.0002,-0.0003,-0.0034,-0.0034,0,0,0,0,0,0,0.0206,0.0191,0.0163,0.016,0.0176,0.0137,0.0131,0.0127,0.0079,0.0072,0.0101,0.0099,0.0036,0.003,0.0025,0.0044,-0.0001,-0.0004,-0.0005,-0.0035,-0.0034,-0.0033,0,0,0,0,0,0,0.0207,0.0204,0.0166,0.0176,0.017,0.0137,0.0133,0.0126,0.0118,0.0076,0.0068,0.0101,0.0036,0.0028,0.0017,0.004,-0.0005,-0.0007,-0.0036,-0.0035,-0.0034,0.0062,0,0,0,0,0,0,0.0209,0.0205,0.0209,0.0177,0.017,0.0166,0.0133,0.0125,0.0118,0.0114,0.0073,0.0066,0.0035,0.0021,0.0015,0.0035,-0.0009,-0.0037,-0.0035,-0.0034,0.0058,0.0066,0.0073,0,0,0,0,0,0.021,0.0223,0.021,0.0207,0.0176,0.0167,0.0162,0.0135,0.0118,0.0124,0.0095,0.0067,0.0024,0.002,0.0012,0.0033,-0.0037,-0.0036,-0.0034,0.0054,0.0064,0.0073,0,0,0,0,0,0,0.0243,0.0219,0.0204,0.0209,0.0195,0.0161,0.0163,0.0144,0.0124,0.0119,0.0076,0.0068,0.0062,0.0035,0.0031,0.0026,-0.0011,-0.0011,0.0059,0.0067,0.0075,0.0128,-0.0011,0,0,0,0,0,0.0252,0.0255,0.0229,0.0235,0.0229,0.0196,0.0189,0.0172,0.0149,0.014,0.0111,0.0081,0.0061,0.0055,0.0027,0.0031,0.0029,0.0037,0.0045,0.0051,0.0089,0.01,0.0114,-0.0028,-0.0028,-0.0028,0,0,0.0266,0.0255,0.0255,0.0242,0.0225,0.0234,0.0191,0.0187,0.02,0.0136,0.0142,0.0103,0.0065,0.0065,0.0061,0.0048,0.0089,0.0053,0.006,0.0094,0.0104,0.0118,0.013,-0.0027,-0.0028,-0.0028,0,0,0.0302,0.0286,0.0301,0.0294,0.0279,0.0264,0.0269,0.024,0.0233,0.0231,0.0187,0.0174,0.0137,0.0125,0.0112,0.0147,0.0121,0.0125,0.0218,0.0228,0.0241,0.0252,0.0265,0.0276,0.0138,0.0138,0.0138,0,0.0322,0.0337,0.0306,0.0321,0.0331,0.0286,0.0314,0.0299,0.0273,0.0288,0.0247,0.0225,0.0174,0.0205,0.0207,0.0168,0.0171,0.0187,0.0241,0.0252,0.0262,0.0273,0.0284,0.0143,0.0142,0.0142,0.0141,0,0.0367,0.0382,0.0393,0.0401,0.0407,0.0423,0.0404,0.0411,0.0392,0.0383,0.0401,0.0343,0.0345,0.031,0.0265,0.0314,0.0291,0.0244,0.0226,0.0283,0.0289,0.03,0.015,0.0148,0.0146,0.0145,0,0,0.0416,0.0425,0.0432,0.0462,0.0454,0.0475,0.0498,0.0526,0.0579,0.0533,0.0607,0.0539,0.0519,0.0505,0.045,0.0448,0.049,0.0385,0.0383,0.0414,0.0526,0.0465,0.047,0.0454,0.0456,0.0458,0.0502,0,0.0469,0.0524,0.0513,0.0583,0.0617,0.0599,0.0643,0.0661,0.0667,0.0723,0.0676,0.0711,0.0591,0.0611,0.0587,0.0531,0.0524,0.0484,0.0454,0.0454,0.0406,0.0482,0.045,0.0483,0.0512,0.0513,0.0515,0,0.0529,0.0563,0.0636,0.0704,0.0721,0.076,0.085,0.0882,0.0928,0.094,0.0959,0.0927,0.0938,0.0818,0.077,0.0753,0.0654,0.0588,0.0587,0.0513,0.0414,0.043,0.0501,0.0267,0.053,0.0529,0.0528,0,0.0606,0.0661,0.0733,0.075,0.0808,0.0861,0.0902,0.0958,0.1031,0.11,0.1181,0.1151,0.1194,0.1069,0.0913,0.0858,0.0853,0.0756,0.0608,0.0602,0.0565,0.0551,0.0425,0.0717,0.0717,0.0717,0.0717,0,0.068,0.0744,0.0782,0.0826,0.0945,0.0956,0.1098,0.1132,0.1233,0.1377,0.1314,0.1442,0.1262,0.1224,0.1023,0.0874,0.0939,0.0663,0.0624,0.0593,0.0582,0.0365,0.024,0.0718,0.0718,0.0718,0.0717,0,0.0759,0.0775,0.0871,0.0948,0.0984,0.1077,0.1218,0.133,0.1409,0.1606,0.165,0.1699,0.1672,0.1455,0.1291,0.1058,0.075,0.0795,0.0771,0.0727,0.0341,0.0223,0.0097,0.0002,0.0661,0.066,0.0659,0,0.0805,0.0858,0.0962,0.1034,0.1077,0.1208,0.1315,0.1409,0.1546,0.1786,0.1909,0.1956,0.2031,0.176,0.1358,0.1021,0.0769,0.0729,0.0595,0.0352,0.0191,0.01,0.0022,0.0584,0.0583,0.0582,0.0581,0,0.09,0.0933,0.1007,0.1145,0.1265,0.1413,0.1576,0.171,0.1878,0.2074,0.2337,0.2426,0.2193,0.1877,0.1379,0.1105,0.0557,0.0693,0.0459,0.0152,0.0032,-0.0089,0.0518,0.057,0.0571,0.0572,0.0573,0.0573,0.0971,0.1037,0.1131,0.1269,0.1413,0.1614,0.1764,0.1974,0.2235,0.2552,0.2617,0.2796,0.2275,0.1622,0.125,0.0473,0.0496,0.0205,0.0096,0.0037,-0.0102,0.0481,0.0462,0.0463,0.0463,0.0463,0.0464,0,0.1042,0.1116,0.1252,0.1423,0.16,0.1663,0.1939,0.2125,0.246,0.274,0.2961,0.2771,0.2145,0.1474,0.0444,-0.0048,-0.0223,-0.0325,-0.0468,-0.0508,0.0031,-0.0026,-0.0173,-0.0173,-0.0172,-0.0172,-0.0172,-0.0172,0.1083,0.1202,0.1269,0.1549,0.169,0.1946,0.2114,0.2413,0.2652,0.2971,0.306,0.3075,0.2474,0.0773,-0.0386,-0.0635,-0.0926,-0.101,-0.114,-0.081,-0.077,-0.0731,-0.0816,-0.1125,-0.1127,-0.1639,-0.1644,-0.1648]}],[{"header":{"parameterUnit":"m.s-1","parameterCategory":2,"la1":30.2991,"la2":30.254,"lo1":-89.0895,"lo2":-89.0444,"dy":0.0017,"dx":0.0017,"nx":28,"ny":28,"refTime":"2024-04-25T09:00:00:Z","depth":"2","parameterNumber":2,"parameterNumberName":"U-component_of_CURRENTS"},"data":[0,0,0,0,0,0,0,0,0,0,0,0,0,0,0,0,0,0,0,0,0,0,0,0,0,0,0,0,0,0,0,0,0,0,0,0,0,0,0,0,0,0,0,0,0,0,0,0,0,0,0,0,0,0,0,0,0,0,0.2995,0.2995,0,0.3038,0.3038,0.3038,0.3051,0.3051,0.3051,0.3052,0.3109,0.3111,0.3112,0,0,0,0,0,0,0,0,0,0,0,0,0,0.2932,0.2932,0.2994,0.2995,0.2996,0.3038,0.3038,0.3038,0.3051,0.3051,0.3051,0.3052,0.3109,0.3111,0.3112,0,0,0,0,0,0,0,0,0,0,0,0,0,0.2961,0.2933,0.2994,0.3011,0.3013,0.3038,0.3038,0.3038,0.3051,0.3051,0.3051,0.3052,0.3108,0.311,0.3112,0.312,0,0,0.3119,0.312,0,0,0,0,0,0,0,0,0.296,0.2963,0.3008,0.301,0.3012,0.3043,0.3037,0.3068,0.3051,0.3032,0.3052,0.3052,0.3091,0.3095,0.3096,0.3123,0.3125,0.3119,0.312,0.3121,0.3122,0,0,0,0,0,0,0,0.2957,0.2961,0.3007,0.3009,0.3012,0.3019,0.3023,0.3043,0.3057,0.3034,0.3036,0.3047,0.3092,0.3094,0.3098,0.3126,0.3119,0.3121,0.3122,0.3123,0.3225,0.3226,0,0,0,0,0,0,0.296,0.2959,0.3006,0.3009,0.2991,0.302,0.3025,0.3029,0.3056,0.3062,0.3047,0.3048,0.309,0.3095,0.31,0.3174,0.3121,0.3123,0.3124,0.3223,0.3225,0.3227,0,0,0,0,0,0,0.2958,0.2963,0.3004,0.2989,0.2995,0.3022,0.3027,0.303,0.3047,0.3067,0.3072,0.3063,0.3091,0.3097,0.3134,0.3174,0.3124,0.3126,0.3221,0.3224,0.3226,0.3283,0,0,0,0,0,0,0.2956,0.2962,0.2975,0.2989,0.2996,0.3032,0.3027,0.3031,0.3055,0.3057,0.3082,0.3086,0.3091,0.3131,0.3136,0.3176,0.3127,0.322,0.3222,0.3225,0.3279,0.3287,0.3294,0,0,0,0,0,0.2953,0.2968,0.2975,0.2982,0.301,0.3033,0.3038,0.3054,0.3056,0.3068,0.3087,0.3086,0.3152,0.3134,0.314,0.3181,0.3218,0.3222,0.3225,0.3276,0.3285,0.3293,0,0,0,0,0,0,0.2946,0.2972,0.298,0.3001,0.3023,0.3037,0.3056,0.3063,0.3086,0.3098,0.3101,0.3108,0.3165,0.3158,0.3138,0.3218,0.3187,0.3192,0.3224,0.3233,0.324,0.3281,0.3129,0,0,0,0,0,0.2952,0.2968,0.2993,0.301,0.3025,0.3042,0.3057,0.3073,0.3093,0.3103,0.3116,0.3141,0.318,0.3193,0.3224,0.3257,0.3305,0.3288,0.3295,0.3301,0.3339,0.345,0.3471,0.3237,0.3237,0.3237,0,0,0.2952,0.297,0.2979,0.301,0.3027,0.3062,0.3051,0.3086,0.3123,0.3107,0.3155,0.3173,0.3197,0.3247,0.327,0.3246,0.3388,0.3305,0.331,0.3346,0.3456,0.3479,0.35,0.324,0.3239,0.3239,0,0,0.2964,0.298,0.3002,0.3027,0.3069,0.3087,0.3101,0.3128,0.3151,0.3195,0.3207,0.325,0.3279,0.3316,0.3336,0.3399,0.3432,0.3399,0.346,0.3566,0.3588,0.3607,0.368,0.3706,0.3391,0.3391,0.3391,0,0.2971,0.2999,0.3013,0.3047,0.3076,0.31,0.314,0.3171,0.3208,0.3243,0.3222,0.3315,0.3324,0.3413,0.3434,0.3421,0.3477,0.3423,0.3579,0.3599,0.3618,0.3689,0.3716,0.3394,0.3394,0.3393,0.3393,0,0.2997,0.3033,0.305,0.3102,0.3133,0.3172,0.322,0.326,0.3285,0.332,0.3409,0.3426,0.349,0.3487,0.348,0.3613,0.3608,0.3586,0.3562,0.3646,0.3714,0.3741,0.3398,0.3397,0.3396,0.3396,0,0,0.2985,0.3056,0.3065,0.3101,0.3169,0.3196,0.3273,0.335,0.3422,0.3456,0.355,0.3601,0.3626,0.3653,0.3654,0.3724,0.3883,0.3713,0.3717,0.3795,0.4117,0.3984,0.4,0.3896,0.3902,0.3906,0.4105,0,0.3009,0.3071,0.3106,0.318,0.322,0.3276,0.3343,0.3422,0.3491,0.3589,0.364,0.3734,0.3687,0.3735,0.3805,0.3873,0.3963,0.3831,0.4019,0.4025,0.3903,0.4031,0.3668,0.3805,0.4132,0.4137,0.414,0,0.3025,0.3069,0.3136,0.3228,0.3252,0.3307,0.3432,0.3501,0.3649,0.3711,0.3819,0.3874,0.3998,0.3944,0.4128,0.405,0.4113,0.4145,0.4154,0.4038,0.3944,0.3777,0.3843,0.4186,0.4183,0.4179,0.4176,0,0.2997,0.309,0.3142,0.3173,0.3282,0.3338,0.3406,0.3542,0.3627,0.3819,0.3918,0.4051,0.4163,0.4248,0.4324,0.4255,0.4524,0.443,0.4373,0.4363,0.4097,0.4054,0.4608,0.4607,0.4607,0.4606,0.4606,0,0.2997,0.3044,0.314,0.3172,0.3254,0.3337,0.3462,0.3553,0.3724,0.3851,0.3991,0.4138,0.426,0.4408,0.4424,0.4497,0.4621,0.4435,0.4429,0.41,0.4057,0.4413,0.4388,0.4614,0.4612,0.4611,0.4609,0,0.2958,0.3014,0.3088,0.3206,0.3242,0.3305,0.3469,0.3573,0.3743,0.3925,0.4002,0.4266,0.4447,0.4537,0.4712,0.4641,0.4702,0.4707,0.4297,0.4238,0.4435,0.441,0.4639,0.4636,0.4634,0.4632,0.4631,0,0.2946,0.2974,0.3092,0.3138,0.3197,0.3308,0.3392,0.3558,0.3658,0.3991,0.4065,0.4354,0.4481,0.468,0.4631,0.4641,0.4748,0.4331,0.4115,0.4479,0.4451,0.4429,0.4408,0.3785,0.3776,0.377,0.3764,0,0.2921,0.2963,0.301,0.3083,0.3168,0.3273,0.3391,0.3456,0.367,0.3827,0.4058,0.4205,0.4422,0.429,0.4336,0.4286,0.427,0.4188,0.475,0.3812,0.3685,0.3652,0.3658,0.3704,0.371,0.3714,0.3717,0.372,0.2891,0.2906,0.2946,0.3018,0.3116,0.3192,0.3214,0.3322,0.3423,0.3565,0.3833,0.3919,0.3997,0.385,0.3761,0.3703,0.3961,0.3767,0.3784,0.381,0.3655,0.3528,0.3489,0.3493,0.3497,0.3501,0.3504,0,0.2839,0.2862,0.289,0.2943,0.299,0.3094,0.3181,0.3118,0.3143,0.3306,0.3417,0.3182,0.3125,0.3235,0.303,0.3012,0.2946,0.2911,0.279,0.2854,0.291,0.2704,0.229,0.2286,0.2282,0.2278,0,0,0.2804,0.2777,0.2776,0.2786,0.2857,0.2819,0.2839,0.2769,0.2775,0.2707,0.2741,0.2954,0.3114,0.2635,0.2579,0.241,0.2606,0.2319,0.3298,0.322,0.3271,0.3418,0.3177,0,0,0,0,0]},{"header":{"parameterUnit":"m.s-1","parameterCategory":2,"la1":30.2991,"la2":30.254,"lo1":-89.0895,"lo2":-89.0444,"dy":0.0017,"dx":0.0017,"nx":28,"ny":28,"refTime":"2024-04-25T09:00:00:Z","depth":"2","parameterNumber":3,"parameterNumberName":"V-component_of_CURRENTS"},"data":[0,0,0,0,0,0,0,0,0,0,0,0,0,0,0,0,0,0,0,0,0,0,0,0,0,0,0,0,0,0,0,0,0,0,0,0,0,0,0,0,0,0,0,0,0,0,0,0,0,0,0,0,0,0,0,0,0,0,0.0043,0.0043,0,0.0002,0.0001,0.0001,-0.0031,-0.0031,-0.0031,-0.0031,-0.0097,-0.0098,-0.01,0,0,0,0,0,0,0,0,0,0,0,0,0,0.0069,0.0069,0.0043,0.0043,0.0043,0.0002,0.0001,0.0001,-0.0031,-0.0031,-0.0031,-0.0031,-0.0096,-0.0098,-0.01,0,0,0,0,0,0,0,0,0,0,0,0,0,0.0045,0.0069,0.0043,0.0023,0.0021,0.0002,0.0001,0.0001,-0.0031,-0.0031,-0.0031,-0.0032,-0.0095,-0.0098,-0.01,-0.0109,0,0,-0.0107,-0.0108,0,0,0,0,0,0,0,0,0.0046,0.0044,0.0026,0.0024,0.0022,-0.0008,-0.0013,-0.0037,-0.0031,-0.0013,-0.0031,-0.0032,-0.0068,-0.0073,-0.0081,-0.0112,-0.0115,-0.0107,-0.0109,-0.011,-0.011,0,0,0,0,0,0,0,0.0048,0.0045,0.0026,0.0026,0.0023,0.0007,0.0003,-0.0018,-0.004,-0.0014,-0.0016,-0.0019,-0.007,-0.0079,-0.0083,-0.0116,-0.0107,-0.0109,-0.0111,-0.0112,-0.0148,-0.0148,0,0,0,0,0,0,0.0057,0.0047,0.0027,0.0025,0.0035,0.0007,0.0003,0.0001,-0.0039,-0.0045,-0.0018,-0.002,-0.0075,-0.008,-0.0086,-0.0078,-0.011,-0.0112,-0.0113,-0.0149,-0.0148,-0.0148,0,0,0,0,0,0,0.0058,0.0056,0.0029,0.0036,0.0031,0.0007,0.0005,-0.0,-0.0006,-0.0042,-0.0048,-0.0019,-0.0075,-0.0082,-0.0092,-0.0082,-0.0113,-0.0115,-0.0149,-0.0149,-0.0148,-0.0076,0,0,0,0,0,0,0.0059,0.0057,0.006,0.0037,0.0031,0.0029,0.0005,-0.0001,-0.0007,-0.0009,-0.0044,-0.0051,-0.0076,-0.0089,-0.0095,-0.0085,-0.0117,-0.015,-0.0149,-0.0148,-0.0079,-0.0073,-0.0068,0,0,0,0,0,0.006,0.0071,0.006,0.0058,0.0036,0.003,0.0026,0.0006,-0.0006,-0.0002,-0.0023,-0.005,-0.0088,-0.009,-0.0097,-0.0088,-0.015,-0.0149,-0.0148,-0.0081,-0.0074,-0.0068,0,0,0,0,0,0,0.0085,0.0068,0.0056,0.0061,0.0049,0.0025,0.0027,0.0012,-0.0002,-0.0006,-0.0041,-0.0049,-0.0057,-0.0081,-0.0082,-0.0097,-0.0125,-0.0125,-0.0072,-0.0065,-0.006,-0.0033,-0.0119,0,0,0,0,0,0.0092,0.0095,0.0075,0.008,0.0075,0.0051,0.0046,0.0033,0.0016,0.0009,-0.0015,-0.0041,-0.0059,-0.0068,-0.0091,-0.0095,-0.0118,-0.0096,-0.009,-0.0085,-0.0069,-0.009,-0.0084,-0.0144,-0.0144,-0.0144,0,0,0.0102,0.0094,0.0095,0.0085,0.0073,0.008,0.0048,0.0046,0.0055,0.0005,0.0009,-0.0024,-0.0057,-0.0062,-0.0068,-0.0079,-0.0083,-0.0084,-0.0079,-0.0066,-0.0088,-0.0082,-0.0077,-0.0144,-0.0144,-0.0144,0,0,0.013,0.0117,0.013,0.0126,0.0115,0.0103,0.0106,0.0085,0.008,0.0077,0.0044,0.0025,-0.0007,-0.0023,-0.0036,-0.0014,-0.0055,-0.0029,0.0025,0.0005,0.001,0.0014,-0.0016,-0.0015,-0.0023,-0.0022,-0.0022,0,0.0143,0.0157,0.0134,0.0147,0.0154,0.0119,0.0141,0.0131,0.0111,0.0117,0.0088,0.005,0.0015,0.002,0.0025,0.0,-0.0021,0.0004,0.0014,0.0017,0.0021,-0.0011,-0.0011,-0.0019,-0.0019,-0.002,-0.002,0,0.0179,0.0193,0.0202,0.0209,0.0213,0.0226,0.0212,0.0215,0.0199,0.0185,0.018,0.0131,0.0115,0.0092,0.0064,0.0072,0.0045,0.0021,0.0001,0.0031,-0.0005,-0.0006,-0.0014,-0.0015,-0.0016,-0.0017,0,0,0.0212,0.0226,0.0231,0.0255,0.025,0.0265,0.0282,0.0296,0.0323,0.028,0.031,0.0256,0.0227,0.021,0.0167,0.0143,0.0133,0.0098,0.0096,0.0077,0.0084,0.0034,0.0027,0.0111,0.0112,0.0112,0.0047,0,0.0252,0.0298,0.0293,0.0347,0.0373,0.0359,0.0388,0.0394,0.0385,0.0402,0.0347,0.0352,0.0273,0.0274,0.0235,0.017,0.0136,0.0153,0.0051,0.0048,0.0006,0.0026,0.005,-0.0008,0.0046,0.0045,0.0045,0,0.0297,0.0326,0.0383,0.0435,0.0447,0.0477,0.0529,0.0549,0.0553,0.0548,0.0527,0.0485,0.0453,0.0379,0.0274,0.029,0.0197,0.0128,0.0123,0.0055,-0.0003,-0.0029,-0.0013,0.0043,0.0043,0.0043,0.0044,0,0.0349,0.0397,0.0452,0.0466,0.051,0.0548,0.0578,0.0598,0.0642,0.065,0.0682,0.0612,0.0616,0.0481,0.0338,0.031,0.0216,0.0158,0.0018,0.0013,0.0004,-0.0003,0.0079,0.0079,0.0079,0.0079,0.0079,0,0.0402,0.0449,0.0487,0.0521,0.0609,0.0617,0.0711,0.0725,0.0771,0.0855,0.077,0.0829,0.0646,0.0568,0.0391,0.0215,0.0256,0.0036,-0.0001,0.0026,0.0023,0.0044,0.0041,0.0077,0.0077,0.0078,0.0078,0,0.0452,0.0469,0.0545,0.0609,0.0637,0.0705,0.0807,0.0881,0.0905,0.1014,0.1032,0.1009,0.0914,0.07,0.051,0.0315,0.0129,0.0052,0.009,0.0057,-0.0084,-0.0082,-0.0124,-0.0127,-0.0128,-0.013,-0.0131,0,0.048,0.052,0.0613,0.0675,0.0712,0.0811,0.0894,0.0947,0.1038,0.1146,0.1219,0.1171,0.1161,0.0838,0.0503,0.0172,0.0138,-0.0036,-0.01,-0.0069,-0.0101,-0.0097,-0.0094,-0.0088,-0.0089,-0.009,-0.0091,0,0.0537,0.0569,0.0631,0.0761,0.0862,0.0982,0.1104,0.1196,0.1292,0.1395,0.1536,0.1537,0.1239,0.0934,0.0465,0.0235,0.0007,-0.0065,-0.0014,-0.0046,-0.0042,-0.0072,-0.0068,-0.0097,-0.0096,-0.0096,-0.0095,-0.0095,0.0583,0.0636,0.0727,0.0857,0.0982,0.1155,0.1276,0.1425,0.16,0.1756,0.1745,0.1736,0.1361,0.0763,0.0382,-0.003,-0.0028,-0.0193,-0.0188,-0.0183,-0.0171,-0.0172,-0.0249,-0.0249,-0.025,-0.025,-0.025,0,0.064,0.0703,0.0823,0.0988,0.1151,0.1206,0.1422,0.1557,0.1794,0.1891,0.1975,0.1611,0.1246,0.0824,0.021,-0.0173,-0.0191,-0.029,-0.0223,-0.0215,-0.0209,-0.0197,-0.0283,-0.0284,-0.0285,-0.0285,0,0,0.0672,0.0784,0.0849,0.111,0.124,0.1456,0.1593,0.1801,0.1914,0.2017,0.1989,0.1869,0.1358,0.0902,0.0403,0.0073,0.0014,-0.0002,0.0059,0.0203,0.0215,-0.0125,-0.0095,0,0,0,0,0]}],[{"header":{"parameterUnit":"m.s-1","parameterCategory":2,"la1":30.2991,"la2":30.254,"lo1":-89.0895,"lo2":-89.0444,"dy":0.0017,"dx":0.0017,"nx":28,"ny":28,"refTime":"2024-04-25T09:00:00:Z","depth":"4","parameterNumber":2,"parameterNumberName":"U-component_of_CURRENTS"},"data":[0,0,0,0,0,0,0,0,0,0,0,0,0,0,0,0,0,0,0,0,0,0,0,0,0,0,0,0,0,0,0,0,0,0,0,0,0,0,0,0,0,0,0,0,0,0,0,0,0,0,0,0,0,0,0,0,0,0,0.187,0.1871,0,0.1934,0.1934,0.1935,0.1985,0.1986,0.1987,0.1988,0.2044,0.2044,0.2045,0,0,0,0,0,0,0,0,0,0,0,0,0,0.1769,0.177,0.187,0.1872,0.1873,0.1934,0.1934,0.1935,0.1985,0.1986,0.1987,0.1988,0.2044,0.2044,0.2045,0,0,0,0,0,0,0,0,0,0,0,0,0,0.1815,0.177,0.187,0.1909,0.1914,0.1934,0.1934,0.1935,0.1985,0.1986,0.1987,0.1989,0.2043,0.2044,0.2045,0.2021,0,0,0.2048,0.2048,0,0,0,0,0,0,0,0,0.1813,0.1818,0.1902,0.1907,0.1912,0.1958,0.1919,0.1965,0.1984,0.1952,0.1988,0.199,0.2017,0.202,0.2021,0.2023,0.2026,0.2048,0.2048,0.2049,0.2049,0,0,0,0,0,0,0,0.1809,0.1816,0.189,0.1904,0.1909,0.1916,0.1924,0.1928,0.1971,0.1955,0.196,0.1975,0.2019,0.202,0.2023,0.2027,0.2048,0.2048,0.2049,0.2049,0.2132,0.2134,0,0,0,0,0,0,0.1812,0.1813,0.1888,0.1893,0.1871,0.1917,0.1926,0.1937,0.1971,0.198,0.1974,0.1977,0.2018,0.2022,0.2025,0.2104,0.2049,0.2049,0.205,0.213,0.2132,0.2134,0,0,0,0,0,0,0.1809,0.1818,0.1886,0.1859,0.1868,0.1918,0.193,0.1938,0.1985,0.1987,0.1994,0.2019,0.2019,0.2024,0.2065,0.2103,0.205,0.2051,0.2128,0.2131,0.2133,0.2194,0,0,0,0,0,0,0.1806,0.1816,0.184,0.1859,0.187,0.1923,0.1929,0.1938,0.1991,0.1998,0.2027,0.2031,0.2021,0.2064,0.2066,0.2103,0.2051,0.2126,0.2129,0.2132,0.219,0.2199,0.2206,0,0,0,0,0,0.1802,0.1822,0.1841,0.1851,0.1897,0.1925,0.1931,0.1967,0.1993,0.2014,0.2039,0.2032,0.2086,0.2066,0.2068,0.2106,0.2125,0.2129,0.2132,0.2187,0.2197,0.2206,0,0,0,0,0,0,0.1794,0.183,0.1851,0.1884,0.1917,0.1936,0.1966,0.1991,0.2027,0.2045,0.2048,0.2053,0.2107,0.2097,0.2075,0.214,0.2107,0.2111,0.2147,0.2157,0.2165,0.2188,0.2052,0,0,0,0,0,0.1802,0.183,0.1863,0.1895,0.1914,0.1949,0.1974,0.1998,0.2026,0.2046,0.2069,0.2092,0.2115,0.2131,0.2145,0.2174,0.219,0.2202,0.221,0.2217,0.2238,0.2297,0.2312,0.2147,0.2147,0.2146,0,0,0.181,0.1835,0.1853,0.1896,0.1925,0.1953,0.1968,0.2014,0.2047,0.2044,0.2105,0.2125,0.2131,0.2169,0.2192,0.2171,0.2271,0.2221,0.2227,0.2245,0.2303,0.2319,0.2333,0.2149,0.2149,0.2148,0,0,0.1822,0.1862,0.1884,0.1915,0.1968,0.1984,0.201,0.2053,0.2087,0.2134,0.215,0.2199,0.2222,0.2242,0.225,0.2311,0.2315,0.2318,0.2372,0.2429,0.2443,0.2456,0.2488,0.2504,0.2316,0.2317,0.2317,0,0.1835,0.1865,0.1896,0.1926,0.1959,0.2004,0.2035,0.2069,0.2124,0.216,0.2165,0.2247,0.2257,0.2312,0.234,0.233,0.2358,0.2332,0.244,0.2453,0.2465,0.2495,0.2512,0.232,0.232,0.2319,0.2319,0,0.1853,0.1893,0.1912,0.1962,0.1996,0.2036,0.2082,0.2134,0.2181,0.2215,0.23,0.2321,0.2376,0.2384,0.2383,0.2476,0.2467,0.2447,0.2415,0.2486,0.2513,0.2528,0.2325,0.2324,0.2323,0.2322,0,0,0.1836,0.1911,0.1922,0.1948,0.2023,0.2042,0.2115,0.218,0.2241,0.23,0.2373,0.2432,0.2473,0.2488,0.2502,0.2551,0.2657,0.2547,0.2549,0.258,0.2783,0.2606,0.2605,0.2664,0.2667,0.267,0.2764,0,0.1846,0.1897,0.1938,0.199,0.2016,0.2086,0.2147,0.2217,0.2284,0.2365,0.2421,0.2495,0.2501,0.2546,0.2603,0.2659,0.2705,0.2634,0.2711,0.2713,0.2548,0.2619,0.268,0.2775,0.2779,0.2782,0.2783,0,0.1841,0.1878,0.1933,0.2004,0.2026,0.2075,0.2183,0.2245,0.2367,0.243,0.2525,0.257,0.2683,0.2659,0.2804,0.2766,0.2792,0.2811,0.2815,0.2643,0.2566,0.2694,0.2812,0.2809,0.2807,0.2805,0.2804,0,0.1786,0.1864,0.1909,0.1938,0.2033,0.2088,0.2153,0.2275,0.2339,0.249,0.2546,0.2679,0.2759,0.2833,0.29,0.2873,0.3028,0.2982,0.2836,0.2824,0.2928,0.2913,0.3065,0.3065,0.3065,0.3064,0.3064,0,0.1756,0.179,0.1896,0.1919,0.1975,0.2069,0.2159,0.2249,0.2391,0.2462,0.2588,0.2651,0.2814,0.2904,0.2943,0.295,0.3071,0.2867,0.2845,0.2948,0.2935,0.2938,0.2922,0.3068,0.3067,0.3066,0.3066,0,0.1672,0.1753,0.1798,0.1913,0.1948,0.1995,0.2136,0.2191,0.236,0.2457,0.2509,0.2683,0.2819,0.2929,0.3062,0.2986,0.3013,0.2971,0.3089,0.3069,0.2757,0.2743,0.282,0.2815,0.281,0.2806,0.2803,0,0.1628,0.1649,0.1764,0.1781,0.1836,0.1926,0.1974,0.2154,0.2212,0.2441,0.2454,0.265,0.2747,0.2798,0.2935,0.2999,0.2956,0.293,0.283,0.2766,0.2737,0.2731,0.2723,0.2796,0.2795,0.2794,0.2793,0,0.1522,0.1588,0.1622,0.1667,0.1716,0.1753,0.1847,0.1877,0.2083,0.2261,0.2359,0.244,0.2581,0.2699,0.2776,0.2803,0.2931,0.2882,0.289,0.2796,0.2738,0.2712,0.271,0.2777,0.2779,0.2781,0.2782,0,0.1439,0.1429,0.1486,0.1515,0.1557,0.1542,0.1625,0.1704,0.1802,0.2076,0.2115,0.2337,0.2555,0.2597,0.2664,0.2696,0.2647,0.2529,0.2555,0.2573,0.245,0.2337,0.2252,0,0,0,0,0,0.1329,0.1298,0.1315,0.132,0.1361,0.14,0.1504,0.1603,0.1819,0.1832,0.1979,0.2106,0.2242,0.2358,0.2347,0.2536,0.2636,0.2504,0.2506,0.2691,0.2709,0.2588,0,0,0,0,0,0,0.1243,0.124,0.1257,0.116,0.1141,0.1162,0.123,0.1381,0.141,0.166,0.1757,0.1964,0.2136,0.2249,0.2308,0.2344,0.2292,0.2667,0.2661,0.2681,0.2697,0.2712,0.2593,0,0,0,0,0]},{"header":{"parameterUnit":"m.s-1","parameterCategory":2,"la1":30.2991,"la2":30.254,"lo1":-89.0895,"lo2":-89.0444,"dy":0.0017,"dx":0.0017,"nx":28,"ny":28,"refTime":"2024-04-25T09:00:00:Z","depth":"4","parameterNumber":3,"parameterNumberName":"V-component_of_CURRENTS"},"data":[0,0,0,0,0,0,0,0,0,0,0,0,0,0,0,0,0,0,0,0,0,0,0,0,0,0,0,0,0,0,0,0,0,0,0,0,0,0,0,0,0,0,0,0,0,0,0,0,0,0,0,0,0,0,0,0,0,0,0.005,0.005,0,0.0027,0.0026,0.0026,0.0007,0.0007,0.0007,0.0006,-0.0035,-0.0036,-0.0037,0,0,0,0,0,0,0,0,0,0,0,0,0,0.0064,0.0064,0.0051,0.005,0.005,0.0027,0.0026,0.0026,0.0007,0.0007,0.0006,0.0006,-0.0035,-0.0036,-0.0037,0,0,0,0,0,0,0,0,0,0,0,0,0,0.005,0.0064,0.0051,0.0038,0.0037,0.0027,0.0026,0.0026,0.0007,0.0007,0.0006,0.0006,-0.0034,-0.0036,-0.0037,-0.0041,0,0,-0.0041,-0.0042,0,0,0,0,0,0,0,0,0.0051,0.005,0.004,0.0039,0.0037,0.002,0.0016,0.0003,0.0007,0.0018,0.0006,0.0006,-0.0018,-0.0021,-0.0025,-0.0043,-0.0045,-0.0041,-0.0042,-0.0043,-0.0043,0,0,0,0,0,0,0,0.0052,0.0051,0.0041,0.004,0.0038,0.0028,0.0026,0.0013,0.0001,0.0017,0.0015,0.0013,-0.0019,-0.0023,-0.0026,-0.0045,-0.0041,-0.0043,-0.0044,-0.0044,-0.0068,-0.0068,0,0,0,0,0,0,0.0057,0.0052,0.0041,0.004,0.0044,0.0028,0.0026,0.0025,0.0001,-0.0002,0.0014,0.0013,-0.0021,-0.0024,-0.0027,-0.0023,-0.0043,-0.0044,-0.0045,-0.0068,-0.0068,-0.0068,0,0,0,0,0,0,0.0057,0.0056,0.0042,0.0046,0.0043,0.0028,0.0028,0.0025,0.0022,-0.0001,-0.0005,0.0013,-0.0021,-0.0025,-0.0031,-0.0025,-0.0045,-0.0046,-0.0068,-0.0068,-0.0068,-0.002,0,0,0,0,0,0,0.0058,0.0057,0.006,0.0046,0.0043,0.0044,0.0028,0.0025,0.0021,0.0019,-0.0002,-0.0006,-0.0022,-0.0029,-0.0032,-0.0027,-0.0047,-0.0069,-0.0068,-0.0068,-0.0022,-0.0018,-0.0015,0,0,0,0,0,0.0059,0.0067,0.006,0.0059,0.0047,0.0044,0.0042,0.003,0.0021,0.0025,0.0011,-0.0006,-0.0029,-0.0029,-0.0034,-0.0029,-0.0069,-0.0068,-0.0068,-0.0023,-0.0019,-0.0015,0,0,0,0,0,0,0.0075,0.0065,0.0057,0.0062,0.0056,0.0041,0.0044,0.0033,0.0025,0.0023,0.0,-0.0004,-0.0008,-0.0025,-0.0025,-0.0036,-0.0053,-0.0054,-0.0018,-0.0014,-0.001,0.0004,-0.0048,0,0,0,0,0,0.0079,0.0083,0.0071,0.0075,0.0073,0.0058,0.0055,0.0047,0.0037,0.0033,0.0018,0.0001,-0.001,-0.0016,-0.003,-0.0033,-0.0064,-0.0035,-0.0031,-0.0028,-0.002,-0.0063,-0.0063,-0.0066,-0.0066,-0.0066,0,0,0.0086,0.0082,0.0083,0.0079,0.0072,0.0079,0.0056,0.0056,0.0064,0.003,0.0035,0.0014,-0.0008,-0.0011,-0.0015,-0.0023,-0.0045,-0.0027,-0.0024,-0.0018,-0.0063,-0.0063,-0.0062,-0.0066,-0.0066,-0.0066,0,0,0.0106,0.0098,0.0109,0.0107,0.0101,0.0095,0.0097,0.0085,0.0081,0.0082,0.0059,0.0044,0.0028,0.0013,0.0004,0.0018,-0.0025,0.001,0.004,-0.0002,-0.0003,-0.0003,-0.0049,-0.0054,0.0011,0.0011,0.0011,0,0.0114,0.0126,0.0112,0.0123,0.0129,0.0106,0.0123,0.0117,0.0105,0.0105,0.0091,0.006,0.0041,0.0035,0.0041,0.0026,-0.0007,0.0027,0.0002,0.0001,-0.0,-0.0047,-0.0053,0.0014,0.0014,0.0013,0.0013,0,0.014,0.0152,0.0159,0.0168,0.0173,0.0183,0.0175,0.0177,0.0167,0.0156,0.0145,0.0112,0.0095,0.0082,0.0069,0.0053,0.0028,0.0012,-0.0007,0.0003,-0.0047,-0.0054,0.0017,0.0016,0.0016,0.0015,0,0,0.0157,0.0175,0.0179,0.0198,0.0199,0.0211,0.0223,0.023,0.0244,0.0213,0.0218,0.0189,0.0161,0.0148,0.0117,0.0082,0.0042,0.005,0.0046,0.0007,-0.0058,-0.0062,-0.0071,0.0018,0.0018,0.0017,-0.0092,0,0.0185,0.0222,0.0222,0.0264,0.0285,0.0276,0.0297,0.0298,0.0288,0.0284,0.0236,0.0229,0.0189,0.0181,0.0138,0.0073,0.0027,0.0073,-0.0064,-0.0068,-0.0071,-0.0078,0.0015,-0.0098,-0.0099,-0.0101,-0.0102,0,0.0213,0.0239,0.0283,0.0325,0.0334,0.0357,0.0388,0.0405,0.0388,0.0378,0.0345,0.03,0.0253,0.0213,0.0093,0.0124,0.004,-0.0023,-0.0029,-0.0051,-0.0085,-0.011,-0.0115,-0.0114,-0.0113,-0.0112,-0.0111,0,0.0242,0.0284,0.0326,0.0338,0.0377,0.0402,0.0428,0.0434,0.0467,0.0437,0.044,0.036,0.0331,0.0216,0.0089,0.0089,-0.0055,-0.0076,-0.0166,-0.0168,-0.0153,-0.0151,-0.0172,-0.0172,-0.0172,-0.0172,-0.0171,0,0.0273,0.0309,0.0348,0.0373,0.044,0.045,0.052,0.0523,0.0544,0.0586,0.0495,0.049,0.0331,0.0228,0.01,-0.0051,-0.0053,-0.0161,-0.0195,-0.0132,-0.0126,-0.0159,-0.0156,-0.0176,-0.0175,-0.0174,-0.0173,0,0.0295,0.0315,0.0375,0.0431,0.0457,0.0509,0.0601,0.0652,0.0651,0.0696,0.0691,0.0591,0.0455,0.0281,0.0091,-0.0022,-0.0174,-0.0233,-0.0153,-0.018,-0.0265,-0.0259,-0.0343,-0.0344,-0.0345,-0.0346,-0.0346,0,0.0307,0.0338,0.0423,0.0477,0.0508,0.0594,0.0663,0.0705,0.0766,0.0762,0.0786,0.066,0.0571,0.0298,0.0103,-0.0161,-0.0198,-0.029,-0.0278,-0.0258,-0.0282,-0.0274,-0.0267,-0.0348,-0.0348,-0.0348,-0.0349,0,0.0338,0.0369,0.0425,0.0536,0.0619,0.0724,0.0821,0.0868,0.0918,0.0909,0.0872,0.0713,0.0549,0.0316,0.0104,-0.0082,-0.0234,-0.03,-0.0299,-0.0289,-0.0265,-0.0286,-0.0278,-0.0351,-0.0351,-0.0351,-0.0351,0,0.037,0.0415,0.0499,0.0595,0.0711,0.0827,0.0871,0.0941,0.0993,0.0979,0.0962,0.0767,0.0653,0.0356,0.0167,-0.0024,-0.0076,-0.0141,-0.015,-0.0149,-0.0063,-0.0003,-0.0036,0,0,0,0,0,0.0404,0.0463,0.0556,0.0673,0.079,0.0862,0.0972,0.1008,0.1037,0.1029,0.1004,0.0851,0.0553,0.0415,0.0226,0.0137,-0.0118,-0.0094,-0.02,-0.0368,-0.0365,-0.0297,0,0,0,0,0,0,0.0429,0.052,0.0561,0.0725,0.0814,0.0956,0.103,0.1048,0.1046,0.103,0.0879,0.0795,0.0509,0.0666,0.0219,0.0158,0.0062,-0.0235,-0.0239,-0.037,-0.0367,-0.0364,-0.0293,0,0,0,0,0]}]]